www.pogodaiklimat.ru

Погода и климат >> Архив погоды >> Россия >> Камчатский край >> Козыревск


ПОГОДА в Козыревске

  • Прогноз погоды в Козыревске
  • Монитор погоды в Козыревске

АРХИВ ПОГОДЫ в Козыревске

Время (UTC), дата Ветер
(напр.,м/с)
 
Видим.   Явления Облачность Т
(С)
Тd
(С)
f
(%)
Тe
(С)
Тes
(С)
Комфортность P
(гПа)
Po
(гПа)
Тmin
(С)
Tmax
(С)
R
(мм)
R24
(мм)
S
(см)
21 9.06 С 4 10 км слаб. ливневой дождь 10/8 600 м
[Cb cap Ac As]
+6.8 +5.1 89 +3 +3 1019.2 1014.2 +6.0 0.5
00 10.06 С 5-11
{11}
50 км {ливн. осадки} 9/5 600 м
[Sc Ac und]
+9.3 +5.5 77 +6 +8 1018.6 1013.7
03 10.06 С 4 50 км 10 баллов +9.7 +5.9 77 +7 +7 1018.2 1013.3
06 10.06 С 4
{10}
10 км слаб. ливневой дождь 10/8 600 м
[Cb cap Ac As]
+9.2 +6.9 86 +6 +6 1017.6 1012.7
09 10.06 С 4 50 км {ливн. осадки} 9/6 600 м
[Sc Ac und]
+8.6 +5.9 83 +5 +5 1018.2 1013.3 +10.1 0.6
12 10.06 С 6-11
{11}
20 км {ливн. осадки} 6/4 600 м
[Sc Ac trans]
+6.8 +3.8 81 +2 +2 1017.3 1012.4
15 10.06 С 6-12
{13}
20 км 10/5 600 м
[Sc Ac As]
+5.9 +2.9 81 +1 +1 1017.9 1012.9
18 10.06 С 5-10
{12}
50 км 8/4 600 м
[Sc Ac trans]
+5.5 +2.6 82 +1 +1 1018.3 1013.3
21 10.06 С 6-12
{12}
50 км 8/4 600 м
[Sc Ac trans]
+6.9 +2.6 74 +3 +3 1018.9 1014.0 +5.5
00 11.06 С 6-11
{14}
50 км 8/4 600 м
[Sc Ac trans]
+9.8 +1.9 58 +7 +9 1018.1 1013.2
03 11.06 С 5-10
{14}
50 км 9/5 600 м
[Sc Ac und]
+11.3 +2.1 53 +9 +11 1017.1 1012.2
06 11.06 С 5-10
{13}
50 км 10/5 600 м
[Sc Ac As]
+11.0 +1.2 51 +9 +9 1017.1 1012.2
09 11.06 С 6-11
{12}
50 км 10/5 600 м
[Sc Ac As]
+9.2 +2.3 62 +6 +6 1018.2 1013.3 +11.6
12 11.06 С 4
{12}
20 км 10/4 600 м
[Sc Ac As]
+7.2 +2.4 72 +4 +4 1018.4 1013.5
15 11.06 С 4
{10}
20 км 10/4 600 м
[Sc Ac As]
+5.9 +2.2 77 +2 +2 1019.7 1014.7
18 11.06 С 3 50 км 4/4 600 м
[Sc]
+5.3 +2.5 82 +2 +2 1021.0 1016.0
21 11.06 С 3 50 км 3/0
[Ac trans]
+8.7 +1.9 62 +6 +11 1019.9 1015.0 +4.8
00 12.06 СЗ 2 50 км 3/0
[Ac trans]
+12.5 +2.9 52 +12 +24 опасность
простуды
1019.6 1014.7
03 12.06 С 2 50 км ясно +16.3 +2.0 38 +17 +31 опасность
простуды
1018.1 1013.3
06 12.06 СЗ 3 50 км ясно +17.3 +1.7 35 +17 +22 1016.8 1012.0
09 12.06 СЗ 2 50 км ясно +15.3 +1.8 40 +15 +16 1016.8 1012.0 +17.5
12 12.06 С 2 50 км ясно +10.5 +4.6 67 +9 +9 1016.9 1012.0
15 12.06 штиль 0 50 км ясно +3.8 +2.3 90 +3 +3 1018.3 1013.3
18 12.06 ЮВ 1 50 км ясно +1.5 -0.3 88 -0 0 1019.8 1014.7
21 12.06 ЮЗ 1 50 км 4/0
[Ci fib]
+11.1 +4.4 63 +11 +18 1018.1 1013.2 +0.1
00 13.06 С 2 50 км 5/3 1000 м
[Cu hum Ci fib]
+18.0 +3.8 39 +19 +26 1018.1 1013.3
03 13.06 СЗ 3 50 км 3/3 1000 м
[Cu hum]
+20.2 +0.6 27 +21 +30 комфорт 1015.4 1010.7
06 13.06 С 4 50 км 5/3 1000 м
[Sc Ci fib]
+20.7 +2.5 30 +21 +23 комфорт 1014.0 1009.3
09 13.06 С 3 50 км 3/0
[Ci fib]
+17.8 +0.9 32 +18 +18 1014.0 1009.3 +21.1
12 13.06 С 3 50 км 2 балла +11.8 +3.6 57 +10 +10 1015.5 1010.7
15 13.06 СЗ 1 20 км 6 баллов +7.8 +3.8 76 +7 +7 1016.9 1012.0
18 13.06 С 1 50 км ясно +7.2 +4.3 82 +6 +7 1016.9 1012.0
21 13.06 С 3 50 км ясно +12.6 +3.6 54 +11 +17 1015.8 1011.0 +5.7
00 14.06 С 4 50 км ясно +17.4 -0.4 30 +17 +27 1015.5 1010.7
03 14.06 С 3 50 км 3/3 1000 м
[Cu med, cong]
+20.3 +3.5 33 +21 +30 комфорт 1015.4 1010.7
06 14.06 С 4 50 км 3/3 1000 м
[Cu med, cong]
+20.9 +0.1 25 +21 +24 комфорт 1014.0 1009.3
09 14.06 СЗ 2 50 км 3/0
[Ci fib]
+18.8 +1.8 32 +20 +20 1015.4 1010.7 +21.4
12 14.06 ЮВ 1 50 км 3/0
[Ci fib]
+7.9 +4.5 79 +7 +7 1016.9 1012.0
15 14.06 штиль 0 50 км 5/0
[Ci fib]
+3.2 +1.9 91 +2 +2 1018.3 1013.3
18 14.06 штиль 0 50 км 5/0
[Ac trans]
+5.2 +2.2 81 +4 +5 1019.7 1014.7
21 14.06 СЗ 1 50 км ясно +13.2 +6.0 62 +14 +21 1019.3 1014.5 +1.4
00 15.06 СЗ 2 50 км 5/0
[Ci fib]
+20.4 +4.4 35 +22 +29 комфорт 1019.4 1014.7
03 15.06 С 4 50 км 3/3 1000 м
[Sc]
+22.1 +1.1 25 +22 +29 комфорт 1019.4 1014.7
06 15.06 С 2 50 км 3/3 1000 м
[Sc]
+22.5 +0.9 24 +22 +26 комфорт 1019.4 1014.7
09 15.06 С 2 50 км 3/3 1000 м
[Sc]
+17.8 +6.0 46 +18 +19 1020.8 1016.0 +23.3
12 15.06 СЗ 1 50 км 5/3 1000 м
[Sc Ac trans]
+11.9 +7.2 73 +12 +12 1022.2 1017.3
15 15.06 СЗ 1 50 км 4/0
[Ac trans]
+10.4 +6.9 79 +10 +10 1023.6 1018.7
18 15.06 штиль 0 50 км ясно +7.8 +5.4 85 +7 +8 1025.0 1020.0
21 15.06 СЗ 1 50 км ясно +14.0 +7.0 63 +14 +22 1023.6 1018.8 +6.2
00 16.06 ЮЗ 1 50 км ясно +18.3 +4.1 39 +20 +37 опасность
простуды
1023.5 1018.7
03 16.06 ЮЗ 2 50 км 7 баллов +20.3 +2.6 31 +21 +25 комфорт 1022.0 1017.3
06 16.06 ЮЗ 2 50 км 10 баллов +19.7 +2.5 32 +21 +21 комфорт 1022.0 1017.3
09 16.06 Ю 3 50 км 10/0
[Cs]
+16.3 +4.3 45 +16 +16 1023.5 1018.7 +20.6
12 16.06 Ю 2 20 км 10 баллов +13.3 +6.2 62 +13 +13 1023.6 1018.7
15 16.06 штиль 0 20 км 10 баллов +10.6 +7.8 83 +10 +10 1022.2 1017.3

 

Местоположение метеостанции Козыревск (Камчатский край, Россия): широта 56.05 долгота 159.80 высота над уровнем моря 40 м.

В архиве по умолчанию представлена погода в Козыревске за последнюю неделю. Архивные данные за месяц целиком и за предыдущие месяцы, начиная с января 2011 года, Вы можете получить, выбрав интересующий диапазон дат из раскрывающегося списка и нажав кнопку "Ввод!".


*Определитесь, кто Вы:
робот инопланетянин человек

Внимание! Время в таблицах - всемирное. Для получения местного времени необходимо прибавить поправку, которая равна 12 ч.

Смотрите также архив погоды в соседних городах и на ближайших метеорологических станциях:

Погода в Ключах (Камчатский край, Россия) (69 км)
Погода в Эссо (Камчатский край, Россия) (70 км)
Погода в Долиновке (Камчатский край, Россия) (115 км)
Погода в Мильково (Камчатский край, Россия) (173 км)
Погода в Усть-Камчатске (Камчатский край, Россия) (181 км)
Погода в Тигиле (Камчатский край, Россия) (203 км)
Погода в Семячике (Камчатский край, Россия) (215 км)
Погода на Мысе Африка (Камчатский край, Россия) (217 км)
Погода в Усть-Хайрюзово (Камчатский край, Россия) (222 км)
Погода в Пущино (Камчатский край, Россия) (237 км)

Пояснения к столбцам:

Ветер - указаны скорость ветра в м/с - средняя за 10 мин, порывы в срок и между сроками (в фигурных скобках) и направление, откуда дует ветер: С - северный, СВ - северо-восточный, В - восточный, ЮВ - юго-восточный, Ю - южный, ЮЗ - юго-западный, З - западный, СЗ - северо-западный.
Видимость - горизонтальная дальность видимости в метрах или километрах. При видимости от 1 до 10 км при отсутствии осадков обычно наблюдается дымка, при ухудшении видимости до 1 км и менее - туман. В сухую погоду видимость может ухудшаться дымом, пылью или мглою.
Явления - указаны атмосферные явления, наблюдавшиеся в срок или в последний час перед сроком; фигурными скобками обозначены явления, наблюдавшиеся между сроками (за 1-3 часа до срока); квадратными скобками обозначены град или гололедные отложения с указанием их диаметра в мм.
Облачность - указаны через наклонную черту общая и нижняя облачность в баллах и высота нижней границы облаков в метрах; квадратными скобками обозначены формы облаков: Ci - перистые, Cs - перисто-слоистые, Cc - перисто-кучевые, Ac - высококучевые, As - высокослоистые, Sc - слоисто-кучевые, Ns - слоисто-дождевые, Cu - кучевые, Cb - кучево-дождевые. Подробнее классификацию облаков см. в Атласе облаков (PDF).
T - Температура воздуха - температура, измеренная на высоте 2 м над землей.
Td - Температура точки росы - температура, при понижении до которой содержащийся в воздухе водяной пар достигнет насыщения.
f - Относительная влажность воздуха - влажноcть воздуха, измеренная на высоте 2 м над землей.
Te - Эффективная температура - температура, которую ощущает одетый по сезону человек в тени. Характеристика душности погоды. При расчете учитывается влияние влажности воздуха и скорости ветра на теплоощущения человека.
Tes - Эффективная температура на солнце - температура, которую ощущает человек, с поправкой на солнечный нагрев. Характеристика знойности погоды. Зависит от высоты солнца над горизонтом, облачности и скорости ветра. Ночью, в пасмурную погоду, а также при ветре 12 м/с и более поправка равна нулю.
P - Атмосферное давление - приведенное к уровню моря атмосферное давление.
Po - Атмосферное давление - измеренное на уровне метеостанции атмосферное давление.
Tmin - Минимальная температура - минимум температуры воздуха на высоте 2 м над землей.
Tmax - Максимальная температура - максимум температуры воздуха на высоте 2 м над землей.
R - Количество осадков - Количество выпавших осадков за период времени, мм. При наведении курсора мыши на число - период времени, за который выпало указанное количество осадков.
R24 - Количество осадков - Количество выпавших осадков за 24 часа, мм.
S - Снежный покров - Высота снежного покрова, см. При наведении курсора мыши на число - состояние снежного покрова и степень покрытия местности в баллах.